• In Uzbekistan
  • List of Countries
  • For 7 days
  • Water Temperature
  • Weather Map
  • Weather Widgets
  • user-avatar
    Login

    Hourly Weather Tianjin

    Today, 21 October, Monday

    Time Temperature Precipitation Wind Pressure Humidity
    00:00 +15°C° 0 mm 2 mps 764 mmHg 20%
    01:00 +15°C° 0 mm 2 mps 764 mmHg 21%
    02:00 +14°C° 0 mm 2 mps 764 mmHg 21%
    03:00 +14°C° 0 mm 2 mps 764 mmHg 21%
    04:00 +13°C° 0 mm 2 mps 764 mmHg 22%
    05:00 +12°C° 0 mm 3 mps 764 mmHg 22%
    06:00 +12°C° 0 mm 3 mps 765 mmHg 23%
    07:00 +13°C° 0 mm 3 mps 765 mmHg 24%
    08:00 +14°C° 0 mm 3 mps 765 mmHg 25%
    09:00 +16°C° 0 mm 3 mps 765 mmHg 24%
    10:00 +18°C° 0 mm 3 mps 765 mmHg 24%
    11:00 +20°C° 0 mm 3 mps 765 mmHg 23%
    12:00 +20°C° 0 mm 2 mps 765 mmHg 23%
    13:00 +21°C° 0 mm 2 mps 764 mmHg 23%
    14:00 +23°C° 0 mm 2 mps 763 mmHg 23%
    15:00 +21°C° 0 mm 2 mps 763 mmHg 27%
    16:00 +20°C° 0 mm 3 mps 763 mmHg 32%
    17:00 +19°C° 0 mm 3 mps 763 mmHg 36%
    18:00 +18°C° 0 mm 3 mps 763 mmHg 42%
    19:00 +17°C° 0 mm 2 mps 763 mmHg 48%
    20:00 +16°C° 0 mm 2 mps 763 mmHg 54%
    21:00 +16°C° 0 mm 2 mps 763 mmHg 57%
    22:00 +15°C° 0 mm 1 mps 763 mmHg 59%
    23:00 +15°C° 0 mm 1 mps 764 mmHg 62%

    Tomorrow, 22 October, Tuesday

    Time Temperature Precipitation Wind Pressure Humidity
    00:00 +14°C° 0 mm 1 mps 763 mmHg 63%
    01:00 +14°C° 0 mm 1 mps 763 mmHg 63%
    02:00 +14°C° 0 mm 1 mps 763 mmHg 64%
    03:00 +13°C° 0 mm 1 mps 763 mmHg 65%
    04:00 +12°C° 0 mm 0 mps 763 mmHg 66%
    05:00 +12°C° 0 mm 0 mps 762 mmHg 67%
    06:00 +12°C° 0 mm 0 mps 763 mmHg 64%
    07:00 +13°C° 0 mm 0 mps 763 mmHg 62%
    08:00 +13°C° 0 mm 0 mps 763 mmHg 59%
    09:00 +15°C° 0 mm 0 mps 763 mmHg 52%
    10:00 +18°C° 0 mm 0 mps 763 mmHg 44%
    11:00 +20°C° 0 mm 0 mps 763 mmHg 36%
    12:00 +23°C° 0 mm 1 mps 763 mmHg 32%
    13:00 +24°C° 0 mm 2 mps 762 mmHg 27%
    14:00 +25°C° 0 mm 2 mps 762 mmHg 23%
    15:00 +24°C° 0 mm 2 mps 762 mmHg 24%
    16:00 +24°C° 0 mm 1 mps 762 mmHg 26%
    17:00 +23°C° 0 mm 1 mps 761 mmHg 27%
    18:00 +22°C° 0 mm 1 mps 762 mmHg 31%
    19:00 +20°C° 0 mm 2 mps 762 mmHg 36%
    20:00 +18°C° 0 mm 2 mps 762 mmHg 40%
    21:00 +18°C° 0 mm 2 mps 762 mmHg 42%
    22:00 +18°C° 0 mm 2 mps 762 mmHg 45%
    23:00 +17°C° 0 mm 2 mps 763 mmHg 47%

    Day after tomorrow, 23 October, Wednesday

    Time Temperature Precipitation Wind Pressure Humidity
    00:00 +17°C° 0 mm 2 mps 763 mmHg 49%
    01:00 +16°C° 0 mm 1 mps 763 mmHg 51%
    02:00 +16°C° 0 mm 1 mps 762 mmHg 53%
    03:00 +16°C° 0 mm 1 mps 762 mmHg 54%
    04:00 +15°C° 0 mm 1 mps 762 mmHg 54%
    05:00 +15°C° 0 mm 1 mps 762 mmHg 55%
    06:00 +16°C° 0 mm 1 mps 762 mmHg 53%
    07:00 +16°C° 0 mm 1 mps 763 mmHg 50%
    08:00 +16°C° 0 mm 0 mps 763 mmHg 48%
    09:00 +18°C° 0 mm 0 mps 763 mmHg 42%
    10:00 +22°C° 0 mm 1 mps 763 mmHg 36%
    11:00 +24°C° 0 mm 1 mps 763 mmHg 31%
    12:00 +25°C° 0 mm 2 mps 763 mmHg 29%
    13:00 +25°C° 0 mm 2 mps 763 mmHg 28%
    14:00 +26°C° 0 mm 3 mps 762 mmHg 27%
    15:00 +25°C° 0 mm 3 mps 762 mmHg 28%
    16:00 +24°C° 0 mm 3 mps 762 mmHg 30%
    17:00 +22°C° 0 mm 3 mps 762 mmHg 32%
    18:00 +21°C° 0 mm 3 mps 763 mmHg 36%
    19:00 +20°C° 0 mm 3 mps 763 mmHg 41%
    20:00 +19°C° 0 mm 3 mps 763 mmHg 45%
    21:00 +19°C° 0 mm 3 mps 763 mmHg 46%
    22:00 +19°C° 0 mm 3 mps 763 mmHg 47%
    23:00 +19°C° 0 mm 3 mps 764 mmHg 48%

    24 October, Thursday

    Time Temperature Precipitation Wind Pressure Humidity
    00:00 +18°C° 0 mm 3 mps 763 mmHg 47%
    01:00 +18°C° 0 mm 3 mps 763 mmHg 46%
    02:00 +18°C° 0 mm 3 mps 763 mmHg 45%
    03:00 +17°C° 0 mm 3 mps 763 mmHg 45%
    04:00 +17°C° 0 mm 2 mps 763 mmHg 45%
    05:00 +17°C° 0 mm 2 mps 762 mmHg 46%
    06:00 +17°C° 0 mm 2 mps 763 mmHg 46%
    07:00 +17°C° 0 mm 2 mps 763 mmHg 47%
    08:00 +18°C° 0 mm 2 mps 763 mmHg 48%
    09:00 +19°C° 0 mm 4 mps 764 mmHg 45%
    10:00 +20°C° 0 mm 6 mps 764 mmHg 42%
    11:00 +21°C° 0 mm 7 mps 764 mmHg 38%
    12:00 +20°C° 0 mm 7 mps 764 mmHg 33%
    13:00 +20°C° 0 mm 7 mps 764 mmHg 28%
    14:00 +20°C° 0 mm 7 mps 764 mmHg 22%
    15:00 +19°C° 0 mm 6 mps 764 mmHg 25%
    16:00 +17°C° 0 mm 6 mps 764 mmHg 28%
    17:00 +17°C° 0 mm 5 mps 765 mmHg 30%
    18:00 +17°C° 0 mm 4 mps 765 mmHg 31%
    19:00 +17°C° 0 mm 4 mps 766 mmHg 32%
    20:00 +16°C° 0 mm 3 mps 767 mmHg 33%
    21:00 +15°C° 0 mm 4 mps 767 mmHg 31%
    22:00 +14°C° 0 mm 5 mps 768 mmHg 30%
    23:00 +13°C° 0 mm 6 mps 769 mmHg 28%

    25 October, Friday

    Time Temperature Precipitation Wind Pressure Humidity
    00:00 +13°C° 0 mm 6 mps 769 mmHg 29%
    01:00 +11°C° 0 mm 6 mps 769 mmHg 29%
    02:00 +10°C° 0 mm 6 mps 770 mmHg 30%
    03:00 +10°C° 0 mm 6 mps 770 mmHg 32%
    04:00 +9°C° 0 mm 5 mps 770 mmHg 34%
    05:00 +8°C° 0 mm 4 mps 770 mmHg 36%
    06:00 +8°C° 0 mm 4 mps 771 mmHg 35%
    07:00 +8°C° 0 mm 4 mps 771 mmHg 34%
    08:00 +9°C° 0 mm 3 mps 772 mmHg 34%
    09:00 +11°C° 0 mm 3 mps 772 mmHg 30%
    10:00 +12°C° 0 mm 3 mps 771 mmHg 26%
    11:00 +13°C° 0 mm 3 mps 771 mmHg 22%
    12:00 +14°C° 0 mm 3 mps 771 mmHg 20%
    13:00 +16°C° 0 mm 3 mps 770 mmHg 17%
    14:00 +17°C° 0 mm 3 mps 770 mmHg 15%
    15:00 +16°C° 0 mm 2 mps 769 mmHg 16%
    16:00 +15°C° 0 mm 2 mps 769 mmHg 17%
    17:00 +15°C° 0 mm 2 mps 769 mmHg 17%
    18:00 +14°C° 0 mm 1 mps 769 mmHg 19%
    19:00 +13°C° 0 mm 1 mps 769 mmHg 20%
    20:00 +12°C° 0 mm 1 mps 769 mmHg 21%
    21:00 +12°C° 0 mm 1 mps 770 mmHg 22%
    22:00 +11°C° 0 mm 1 mps 770 mmHg 23%
    23:00 +11°C° 0 mm 1 mps 770 mmHg 24%

    26 October, Saturday

    Time Temperature Precipitation Wind Pressure Humidity
    00:00 +10°C° 0 mm 1 mps 769 mmHg 25%
    01:00 +10°C° 0 mm 1 mps 769 mmHg 26%
    02:00 +10°C° 0 mm 1 mps 769 mmHg 27%
    03:00 +9°C° 0 mm 1 mps 768 mmHg 28%
    04:00 +9°C° 0 mm 1 mps 768 mmHg 29%
    05:00 +9°C° 0 mm 1 mps 768 mmHg 30%
    06:00 +9°C° 0 mm 1 mps 768 mmHg 30%
    07:00 +10°C° 0 mm 1 mps 768 mmHg 30%
    08:00 +9°C° 0 mm 2 mps 768 mmHg 30%
    09:00 +12°C° 0 mm 2 mps 768 mmHg 29%
    10:00 +13°C° 0 mm 3 mps 767 mmHg 27%
    11:00 +16°C° 0 mm 3 mps 767 mmHg 25%
    12:00 +17°C° 0 mm 3 mps 766 mmHg 25%
    13:00 +18°C° 0 mm 4 mps 766 mmHg 24%
    14:00 +18°C° 0 mm 4 mps 765 mmHg 23%
    15:00 +18°C° 0 mm 3 mps 764 mmHg 25%
    16:00 +17°C° 0 mm 3 mps 764 mmHg 27%
    17:00 +17°C° 0 mm 3 mps 763 mmHg 29%
    18:00 +16°C° 0 mm 2 mps 763 mmHg 31%
    19:00 +15°C° 0 mm 2 mps 763 mmHg 33%
    20:00 +14°C° 0 mm 2 mps 763 mmHg 36%
    21:00 +13°C° 0 mm 2 mps 763 mmHg 38%
    22:00 +13°C° 0 mm 2 mps 763 mmHg 40%
    23:00 +12°C° 0 mm 3 mps 763 mmHg 42%

    27 October, Sunday

    Time Temperature Precipitation Wind Pressure Humidity
    00:00 +12°C° 0 mm 2 mps 763 mmHg 45%
    01:00 +12°C° 0 mm 2 mps 763 mmHg 48%
    02:00 +10°C° 0 mm 2 mps 762 mmHg 52%
    03:00 +10°C° 0 mm 2 mps 762 mmHg 52%
    04:00 +9°C° 0 mm 2 mps 762 mmHg 52%
    05:00 +10°C° 0 mm 1 mps 762 mmHg 52%
    06:00 +10°C° 0 mm 1 mps 762 mmHg 48%
    07:00 +11°C° 0 mm 1 mps 762 mmHg 43%
    08:00 +12°C° 0 mm 1 mps 763 mmHg 39%
    09:00 +14°C° 0 mm 1 mps 762 mmHg 32%
    10:00 +16°C° 0 mm 2 mps 762 mmHg 25%
    11:00 +18°C° 0 mm 2 mps 762 mmHg 18%
    12:00 +19°C° 0 mm 2 mps 762 mmHg 16%
    13:00 +21°C° 0 mm 1 mps 761 mmHg 14%
    14:00 +23°C° 0 mm 1 mps 761 mmHg 13%
    15:00 +22°C° 0 mm 1 mps 760 mmHg 14%
    16:00 +21°C° 0 mm 1 mps 760 mmHg 15%
    17:00 +20°C° 0 mm 1 mps 760 mmHg 17%
    18:00 +19°C° 0 mm 1 mps 760 mmHg 20%
    19:00 +18°C° 0 mm 1 mps 760 mmHg 23%
    20:00 +16°C° 0 mm 2 mps 760 mmHg 26%
    21:00 +15°C° 0 mm 2 mps 760 mmHg 29%
    22:00 +15°C° 0 mm 2 mps 760 mmHg 32%
    23:00 +15°C° 0 mm 2 mps 760 mmHg 35%
    Show more